Location: Seven Kings
(51.5667°N, 0.1000°E)
Time: 03:36:33
(UTC+00:00)

SL-08 R/B - Pass Details

Date: 29 October 2020
Orbit: 946 x 994 km, 83.0° (Epoch: 27 November)

Event Time Altitude Azimuth Distance (km) Brightness Sun altitude
Rises 17:59:08 0° 349° (N) 3,666 7.6 -13.2°
Reaches altitude 10° 18:01:39 10° 350° (N) 2,709 6.9 -13.6°
Maximum altitude 18:07:52 86° 82° (E) 963 4.4 -14.6°
Drops below altitude 10° 18:13:59 10° 170° (S) 2,666 6.7 -15.5°
Sets 18:16:26 0° 171° (S) 3,604 7.4 -15.9°
